This demonstration page uses our WeatherBlox Daily Observations layout. Learn more.

Left ArrowRight Arrow

40.92945, -100.16068

Hourly Observations for October 29, 2020

Temp ( °F °C ) Dew Point ( °F °C ) Humidity (%) Winds ( mph kmh ) Pressure ( in mb ) Visibility ( mi km ) Precip ( " mm )
12:15 am 00:15 Clear 37 3 33 0.5 84 84 NNW 12 19 30.2 1023 10 16.0934 0 0
12:35 am 00:35 Clear 37 3 33 0.5 84 84 NNW 12 19 30.2 1023 10 16.0934 0 0
12:55 am 00:55 Clear 37 2.5 32 0.2 85 85 NNW 9 15 30.2 1023 10 16.0934 0 0
1:15 am 01:15 Clear 34 1.2 32 -0.2 91 91 NNW 7 11 30.23 1024 10 16.0934 0 0
1:35 am 01:35 Mostly Cloudy 35 1.6 32 0 89 89 NNW 7 11 30.23 1024 10 16.0934 0 0
1:55 am 01:55 Cloudy 37 2.7 33 0.6 86 86 NNW 8 13 30.22 1023 10 16.0934 0 0
2:15 am 02:15 Partly Cloudy 35 1.9 33 0.3 89 89 N 15 24 30.21 1023 10 16.0934 0 0
2:35 am 02:35 Clear 36 2 32 0.2 88 88 N 13 20 30.22 1023 10 16.0934 0 0
2:55 am 02:55 Clear 34 1 32 0 93 93 N 13 20 30.23 1024 10 16.0934 0 0
3:15 am 03:15 Clear 34 0.9 32 -0.2 92 92 NNW 5 7 30.24 1024 10 16.0934 0 0
3:35 am 03:35 Clear 34 1 32 0 93 93 Calm 30.24 1024 10 16.0934 0 0
3:55 am 03:55 Clear 31 -0.8 29 -1.6 94 94 NNW 7 11 30.25 1024 10 16.0934 0 0
4:15 am 04:15 Clear 32 0 30 -1 93 93 NNW 7 11 30.24 1024 10 16.0934 0 0
4:35 am 04:35 Clear 32 0.1 31 -0.7 94 94 NNW 10 17 30.23 1024 10 16.0934 0 0
4:55 am 04:55 Clear 31 -0.4 29 -1.5 92 92 NW 3 6 30.25 1024 10 16.0934 0 0
5:15 am 05:15 Clear 29 -1.4 28 -2.2 94 94 SW 5 7 30.26 1025 10 16.0934 0 0
5:35 am 05:35 Clear 29 -1.5 28 -2.3 94 94 Calm 30.27 1025 10 16.0934 0 0
5:55 am 05:55 Clear 29 -1.7 27 -2.6 94 94 WNW 8 13 30.28 1026 10 16.0934 0 0
6:15 am 06:15 Clear 29 -1.9 27 -2.7 94 94 Calm 30.29 1026 10 16.0934 0 0
6:35 am 06:35 Clear 28 -2.1 27 -2.7 96 96 W 5 7 30.29 1026 10 16.0934 0 0
6:55 am 06:55 Clear 27 -3 25 -3.8 94 94 NW 10 17 30.31 1026 10 16.0934 0 0
7:15 am 07:15 Clear 28 -2.1 27 -2.9 94 94 NW 9 15 30.3 1026 10 16.0934 0 0
7:35 am 07:35 Clear 29 -1.7 28 -2.4 95 95 NW 10 17 30.29 1026 10 16.0934 0 0
7:55 am 07:55 Mostly Cloudy 29 -1.6 28 -2.1 96 96 NW 7 11 30.29 1026 7 11.26538 0 0
8:15 am 08:15 Cloudy 29 -1.5 28 -2.1 96 96 NW 6 9 30.29 1026 7 11.26538 0 0
8:35 am 08:35 Cloudy 30 -1 29 -1.6 96 96 NNW 7 11 30.29 1026 7 11.26538 0 0
8:55 am 08:55 Cloudy 32 0 31 -0.4 97 97 NW 9 15 30.29 1026 7 11.26538 0 0
9:15 am 09:15 Mostly Cloudy 33 0.5 32 0 96 96 N 8 13 30.29 1026 7 11.26538 0 0
9:35 am 09:35 Mostly Cloudy 34 1.3 33 0.4 94 94 NNW 8 13 30.28 1026 10 16.0934 0 0
9:55 am 09:55 Mostly Cloudy 35 1.7 33 0.5 92 92 WNW 6 9 30.28 1025 10 16.0934 0 0
10:15 am 10:15 Mostly Cloudy 36 2 33 0.6 91 91 WNW 3 6 30.29 1026 10 16.0934 0 0
10:35 am 10:35 Partly Cloudy 37 2.5 33 0.8 89 89 Calm 30.27 1025 10 16.0934 0 0
10:55 am 10:55 Partly Cloudy 38 3.5 34 1.1 84 84 Calm 30.27 1025 10 16.0934 0 0
11:15 am 11:15 Partly Cloudy 40 4.2 35 1.5 83 83 Calm 30.26 1025 10 16.0934 0 0
11:35 am 11:35 Sunny 41 4.8 34 0.9 76 76 Calm 30.25 1024 10 16.0934 0 0
11:55 am 11:55 Sunny 43 6 34 1 71 71 Calm 30.24 1024 10 16.0934 0 0
12:15 pm 12:15 Sunny 44 6.7 33 0.5 65 65 SSE 3 6 30.23 1024 10 16.0934 0 0
12:35 pm 12:35 Sunny 45 7.3 33 0.8 64 64 S 8 13 30.21 1023 10 16.0934 0 0
12:55 pm 12:55 Sunny 47 8.4 33 0.4 57 57 SSW 7 11 30.19 1022 10 16.0934 0 0
1:15 pm 13:15 Sunny 48 8.8 32 0.2 55 55 SW 6 9 30.18 1022 10 16.0934 0 0
1:35 pm 13:35 Sunny 49 9.4 33 0.3 53 53 SW 6 9 30.16 1021 10 16.0934 0 0
1:55 pm 13:55 Sunny 50 10.1 33 0.7 52 52 S 10 17 30.13 1020 10 16.0934 0 0
2:15 pm 14:15 Sunny 50 10.1 33 0.6 52 52 SW 12 19 30.12 1020 10 16.0934 0 0
2:35 pm 14:35 Sunny 51 10.3 33 0.7 52 52 SSW 8 13 30.12 1020 10 16.0934 0 0
2:55 pm 14:55 Sunny 51 10.8 33 0.7 50 50 SW 9 15 30.1 1019 10 16.0934 0 0
3:15 pm 15:15 Sunny 51 10.6 34 1.2 53 53 S 12 19 30.11 1019 10 16.0934 0 0
3:35 pm 15:35 Sunny 53 11.6 34 1.3 50 50 SSW 13 20 30.09 1019 10 16.0934 0 0
3:55 pm 15:55 Sunny 54 12.2 35 1.5 48 48 SSW 14 22 30.06 1018 10 16.0934 0 0
4:15 pm 16:15 Sunny 53 11.5 34 1.2 49 49 SSW 13 20 30.06 1018 10 16.0934 0 0
4:35 pm 16:35 Sunny 54 12.2 35 1.5 48 48 SSW 14 22 30.05 1018 10 16.0934 0 0
4:55 pm 16:55 Sunny 55 12.5 35 1.7 48 48 S 12 19 30.05 1018 10 16.0934 0 0
5:15 pm 17:15 Sunny 55 12.6 35 1.6 47 47 SSW 10 17 30.05 1018 10 16.0934 0 0
5:35 pm 17:35 Sunny 55 12.6 35 1.9 48 48 S 12 19 30.05 1018 10 16.0934 0 0
5:55 pm 17:55 Sunny 55 12.5 36 2 49 49 S 9 15 30.04 1017 10 16.0934 0 0
6:15 pm 18:15 Sunny 54 12 36 2.1 51 51 S 9 15 30.05 1018 10 16.0934 0 0
6:35 pm 18:35 Sunny 51 10.3 36 2 57 57 S 8 13 30.07 1018 10 16.0934 0 0
6:55 pm 18:55 Clear 47 8.3 35 1.5 63 63 S 7 11 30.08 1019 10 16.0934 0 0
7:15 pm 19:15 Clear 45 7.4 34 1.1 65 65 S 7 11 30.1 1019 10 16.0934 0 0
7:35 pm 19:35 Clear 44 6.5 34 1 68 68 SSE 6 9 30.1 1019 10 16.0934 0 0
7:55 pm 19:55 Clear 45 7.3 35 1.7 68 68 SSE 6 9 30.1 1019 10 16.0934 0 0
8:15 pm 20:15 Clear 46 8 35 1.8 65 65 SSE 6 9 30.09 1019 10 16.0934 0 0
8:35 pm 20:35 Clear 45 7.1 35 1.6 68 68 SSE 5 7 30.1 1019 10 16.0934 0 0
8:55 pm 20:55 Clear 44 6.5 35 1.7 72 72 S 8 13 30.1 1019 10 16.0934 0 0
9:15 pm 21:15 Clear 44 6.6 35 1.7 71 71 SSW 6 9 30.1 1019 10 16.0934 0 0
9:35 pm 21:35 Clear 42 5.3 34 0.9 74 74 NE 6 9 30.12 1020 10 16.0934 0 0
9:55 pm 21:55 Clear 46 7.6 35 1.8 67 67 Calm 30.09 1019 10 16.0934 0 0
10:15 pm 22:15 Clear 48 9.1 36 2.1 62 62 Calm 30.09 1019 10 16.0934 0 0
10:35 pm 22:35 Clear 39 3.8 32 -0.1 76 76 N 6 9 30.15 1021 10 16.0934 0 0
10:55 pm 22:55 Clear 36 2.1 31 -0.5 83 83 N 3 6 30.18 1022 10 16.0934 0 0
11:15 pm 23:15 Clear 34 1 30 -1 87 87 WNW 3 6 30.19 1022 10 16.0934 0 0
11:35 pm 23:35 Clear 32 0 28 -2 87 87 NNE 5 7 30.2 1023 10 16.0934 0 0
11:55 pm 23:55 Clear 32 0 29 -1.8 88 88 N 3 6 30.2 1023 10 16.0934 0 0

Powered by AerisWeather